Location: Newark
(42.9858°N, 0.6717°E)
Time: 01:53:10
(UTC+00:00)

S-56A Canister/Altair - Pass Details

Date: 20 November 2019
Orbit: 632 x 2500 km, 38.9° (Epoch: 14 December)

Event Time Altitude Azimuth Distance (km) Brightness Sun altitude
Rises 21:01:29 0° 277° (W) 4,038 11.9 -49.0°
Reaches altitude 10° 21:04:54 10° 269° (W) 2,787 10.8 -49.6°
Enters shadow 21:05:10 11° 268° (W) 2,688 10.7 -49.7°
Maximum altitude 21:10:33 35° 206° (SSW) 1,275 - -50.6°
Drops below altitude 10° 21:14:54 10° 141° (SE) 2,124 - -51.3°
Sets 21:17:10 0° 131° (SE) 2,956 - -51.7°
